Location: ???????
(55.3754°N, 39.3545°E)
Time: 06:32:08
(UTC+00:00)

MOZ.5/SAFIR/RUBIN 5/SL-8 - Pass Details

Date: 14 April 2026
Orbit: 665 x 693 km, 98.3° (Epoch: 12 May)

Event Time Altitude Azimuth Distance (km) Brightness Sun altitude
Exits shadow 23:33:25 27° 163° (SSE) 1,322 4.9 -19.5°
Maximum altitude 23:36:01 89° 243° (WSW) 696 3.7 -19.2°
Drops below altitude 10° 23:40:43 10° 344° (NNW) 2,142 6.8 -18.8°
Sets 23:42:58 0° 345° (NNW) 3,057 7.7 -18.7°
